TimeEST,TemperatureF,Dew PointF,Humidity,Sea Level PressureIn,VisibilityMPH,Wind Direction,Wind SpeedMPH,Gust SpeedMPH,PrecipitationIn,Events,Conditions,WindDirDegrees,DateUTC
12:15 AM,53.1,52.2,97,30.01,7.0,Calm,Calm,-,N/A,,Mostly Cloudy,0,2012-12-09 05:15:00
12:35 AM,52.2,51.6,98,30.01,5.0,Calm,Calm,-,N/A,,Overcast,0,2012-12-09 05:35:00
12:55 AM,51.4,51.3,99,30.01,4.0,Calm,Calm,-,N/A,,Mostly Cloudy,0,2012-12-09 05:55:00
1:15 AM,51.8,51.8,100,30.02,5.0,Calm,Calm,-,N/A,,Overcast,0,2012-12-09 06:15:00
1:35 AM,52.0,52.0,100,30.03,4.0,Calm,Calm,-,N/A,,Overcast,0,2012-12-09 06:35:00
2:15 AM,52.3,52.3,100,30.04,5.0,ENE,3.5,-,N/A,,Overcast,70,2012-12-09 07:15:00
2:35 AM,51.8,51.8,100,30.04,4.0,Calm,Calm,-,N/A,,Mostly Cloudy,0,2012-12-09 07:35:00
2:55 AM,49.3,49.3,100,30.05,0.8,Calm,Calm,-,N/A,,Mostly Cloudy,0,2012-12-09 07:55:00
3:15 AM,50.7,50.7,100,30.05,1.0,Calm,Calm,-,N/A,,Overcast,0,2012-12-09 08:15:00
3:35 AM,50.0,50.0,100,30.05,2.0,Calm,Calm,-,N/A,,Mostly Cloudy,0,2012-12-09 08:35:00
3:55 AM,48.2,48.2,100,30.05,0.2,Calm,Calm,-,N/A,Fog,Fog,0,2012-12-09 08:55:00
4:15 AM,47.5,47.5,100,30.05,0.8,Calm,Calm,-,N/A,,Overcast,0,2012-12-09 09:15:00
4:35 AM,48.2,48.2,100,30.05,0.2,Calm,Calm,-,N/A,Fog,Fog,0,2012-12-09 09:35:00
4:55 AM,47.7,47.7,100,30.05,0.2,Calm,Calm,-,N/A,Fog,Fog,0,2012-12-09 09:55:00
5:15 AM,47.3,47.3,100,30.06,0.5,North,3.5,-,N/A,Fog,Fog,360,2012-12-09 10:15:00
5:35 AM,50.5,50.5,100,30.07,3.0,NNW,4.6,-,N/A,,Overcast,340,2012-12-09 10:35:00
5:55 AM,50.9,50.9,100,30.07,1.0,North,4.6,-,N/A,,Overcast,10,2012-12-09 10:55:00
6:15 AM,51.3,51.3,100,30.09,0.8,Calm,Calm,-,N/A,,Overcast,0,2012-12-09 11:15:00
6:55 AM,51.4,51.4,100,30.12,0.8,North,3.5,-,N/A,,Overcast,350,2012-12-09 11:55:00
7:15 AM,51.8,51.8,100,30.13,1.0,Calm,Calm,-,N/A,,Overcast,0,2012-12-09 12:15:00
7:35 AM,51.8,51.8,100,30.13,0.8,NNW,3.5,-,N/A,,Overcast,340,2012-12-09 12:35:00
7:55 AM,52.0,52.0,100,30.13,0.5,NNE,4.6,-,N/A,Fog,Fog,30,2012-12-09 12:55:00
8:15 AM,52.3,52.3,100,30.12,2.0,NE,5.8,-,N/A,,Overcast,50,2012-12-09 13:15:00
8:35 AM,52.7,52.7,100,30.13,2.5,NE,5.8,-,N/A,,Overcast,50,2012-12-09 13:35:00
8:55 AM,52.9,52.9,100,30.14,3.0,NNE,5.8,-,N/A,,Overcast,20,2012-12-09 13:55:00
9:35 AM,53.6,53.6,100,30.15,4.0,NNE,4.6,-,N/A,,Overcast,20,2012-12-09 14:35:00
9:55 AM,54.0,54.0,100,30.16,5.0,NE,4.6,-,N/A,,Overcast,40,2012-12-09 14:55:00
10:15 AM,55.0,53.6,95,30.16,5.0,NE,3.5,-,N/A,,Overcast,50,2012-12-09 15:15:00
10:35 AM,55.2,52.7,91,30.16,7.0,NE,3.5,-,N/A,,Overcast,50,2012-12-09 15:35:00
10:55 AM,55.4,52.3,89,30.14,7.0,East,10.4,16.1,N/A,,Overcast,80,2012-12-09 15:55:00
11:15 AM,55.0,52.3,91,30.13,7.0,ENE,5.8,-,N/A,,Overcast,70,2012-12-09 16:15:00
11:35 AM,55.0,52.7,92,30.13,5.0,NE,4.6,-,N/A,,Overcast,50,2012-12-09 16:35:00
11:55 AM,54.9,52.9,93,30.13,4.0,ENE,6.9,-,N/A,,Overcast,60,2012-12-09 16:55:00
12:15 PM,54.9,53.2,94,30.12,3.0,NE,4.6,-,N/A,,Overcast,40,2012-12-09 17:15:00
12:35 PM,54.5,53.2,96,30.12,2.0,NE,6.9,-,N/A,,Overcast,50,2012-12-09 17:35:00
12:55 PM,54.3,53.6,97,30.11,1.5,NE,6.9,-,N/A,,Overcast,40,2012-12-09 17:55:00
1:15 PM,54.1,53.6,98,30.11,1.5,NNE,4.6,-,N/A,,Overcast,30,2012-12-09 18:15:00
1:35 PM,53.8,53.2,98,30.10,1.8,NE,6.9,-,N/A,,Overcast,50,2012-12-09 18:35:00
1:55 PM,53.6,53.4,99,30.10,1.5,ENE,6.9,-,N/A,,Overcast,60,2012-12-09 18:55:00
2:15 PM,53.6,53.4,99,30.10,1.5,NE,5.8,-,N/A,,Overcast,50,2012-12-09 19:15:00
2:35 PM,53.6,53.6,100,30.09,1.5,ENE,4.6,-,N/A,,Overcast,60,2012-12-09 19:35:00
2:55 PM,53.6,53.4,99,30.10,1.8,NE,4.6,-,N/A,,Overcast,50,2012-12-09 19:55:00
3:35 PM,53.6,53.2,99,30.10,1.8,NE,4.6,-,N/A,,Overcast,40,2012-12-09 20:35:00
3:55 PM,53.4,53.2,99,30.10,1.8,ENE,4.6,-,N/A,,Overcast,60,2012-12-09 20:55:00
4:15 PM,53.2,53.1,99,30.09,1.5,ENE,4.6,-,N/A,,Overcast,60,2012-12-09 21:15:00
4:35 PM,53.1,53.1,100,30.10,2.0,Calm,Calm,-,N/A,,Overcast,0,2012-12-09 21:35:00
4:55 PM,52.9,52.9,100,30.09,1.8,East,3.5,-,N/A,,Overcast,80,2012-12-09 21:55:00
5:15 PM,52.9,52.9,100,30.09,1.2,East,3.5,-,N/A,,Overcast,80,2012-12-09 22:15:00
5:35 PM,52.9,52.9,100,30.09,1.2,Calm,Calm,-,N/A,Rain,Rain,0,2012-12-09 22:35:00
5:55 PM,52.9,52.9,100,30.09,2.0,ESE,4.6,-,N/A,,Overcast,120,2012-12-09 22:55:00
6:15 PM,52.9,52.9,100,30.08,2.5,NE,3.5,-,N/A,,Overcast,50,2012-12-09 23:15:00
6:55 PM,52.7,52.7,100,30.09,2.5,Calm,Calm,-,0.01,Rain,Light Rain,0,2012-12-09 23:55:00
7:15 PM,52.7,52.7,100,30.08,3.0,ESE,3.5,-,N/A,Rain,Rain,120,2012-12-10 00:15:00
7:35 PM,52.7,52.7,100,30.07,4.0,Calm,Calm,-,N/A,,Overcast,0,2012-12-10 00:35:00
7:55 PM,52.7,52.7,100,30.06,4.0,Calm,Calm,-,N/A,,Overcast,0,2012-12-10 00:55:00
8:15 PM,52.3,52.3,100,30.06,4.0,Calm,Calm,-,N/A,,Overcast,0,2012-12-10 01:15:00
8:35 PM,52.3,52.3,100,30.06,3.0,Calm,Calm,-,N/A,,Overcast,0,2012-12-10 01:35:00
8:55 PM,52.2,52.2,100,30.04,1.8,Calm,Calm,-,N/A,,Overcast,0,2012-12-10 01:55:00
9:35 PM,52.0,52.0,100,30.03,0.5,Calm,Calm,-,N/A,Fog,Fog,0,2012-12-10 02:35:00
9:55 PM,51.8,51.8,100,30.02,0.5,Calm,Calm,-,N/A,Fog,Fog,0,2012-12-10 02:55:00
10:15 PM,51.8,51.8,100,30.01,0.5,Calm,Calm,-,N/A,Rain,Light Rain,0,2012-12-10 03:15:00
10:35 PM,51.8,51.8,100,30.01,0.5,Calm,Calm,-,0.01,Rain,Rain,0,2012-12-10 03:35:00
10:55 PM,51.8,51.8,100,30.01,1.2,Calm,Calm,-,0.02,,Overcast,0,2012-12-10 03:55:00
11:15 PM,51.8,51.8,100,30.00,1.0,Calm,Calm,-,N/A,,Overcast,0,2012-12-10 04:15:00
11:35 PM,51.8,51.8,100,30.00,0.8,Calm,Calm,-,N/A,,Overcast,0,2012-12-10 04:35:00
11:55 PM,51.8,51.8,100,29.98,0.8,Calm,Calm,-,N/A,,Overcast,0,2012-12-10 04:55:00